Time,TemperatureF,DewpointF,PressureIn,WindDirection,WindDirectionDegrees,WindSpeedMPH,WindSpeedGustMPH,Humidity,HourlyPrecipIn,Conditions,Clouds,dailyrainin,SoftwareType,DateUTC
2013-06-17 00:01:00,70.7,66.0,29.90,WNW,287,0.0,1.0,85,0.00,,,0.00,meteohub,2013-06-17 04:01:00,
2013-06-17 00:06:00,70.3,65.7,29.90,WNW,285,0.0,1.0,85,0.00,,,0.00,meteohub,2013-06-17 04:06:00,
2013-06-17 00:11:00,70.0,65.7,29.90,WNW,285,0.0,0.0,86,0.00,,,0.00,meteohub,2013-06-17 04:11:00,
2013-06-17 00:16:00,69.6,65.3,29.91,WNW,288,0.0,0.0,86,0.00,,,0.00,meteohub,2013-06-17 04:16:00,
2013-06-17 00:21:00,69.6,65.7,29.91,West,278,1.0,0.0,87,0.00,,,0.00,meteohub,2013-06-17 04:21:00,
2013-06-17 00:26:00,69.8,66.0,29.90,NW,314,1.0,1.0,88,0.00,,,0.00,meteohub,2013-06-17 04:26:00,
2013-06-17 00:31:00,70.0,66.0,29.91,West,281,1.0,2.0,87,0.00,,,0.00,meteohub,2013-06-17 04:31:00,
2013-06-17 00:36:00,70.0,66.0,29.91,West,281,0.0,2.0,87,0.00,,,0.00,meteohub,2013-06-17 04:36:00,
2013-06-17 00:41:00,70.0,66.0,29.91,West,279,0.0,2.0,87,0.00,,,0.00,meteohub,2013-06-17 04:41:00,
2013-06-17 00:46:00,69.8,65.8,29.91,West,280,0.0,1.0,87,0.00,,,0.00,meteohub,2013-06-17 04:46:00,
2013-06-17 00:51:00,69.6,65.7,29.91,SSW,200,0.0,1.0,87,0.00,,,0.00,meteohub,2013-06-17 04:51:00,
2013-06-17 00:56:00,69.6,65.7,29.91,SW,217,0.0,2.0,87,0.00,,,0.00,meteohub,2013-06-17 04:56:00,
2013-06-17 01:01:00,69.4,65.5,29.91,SW,217,0.0,2.0,87,0.00,,,0.00,meteohub,2013-06-17 05:01:00,
2013-06-17 01:06:00,69.4,65.7,29.91,SE,145,0.0,2.0,88,0.00,,,0.00,meteohub,2013-06-17 05:06:00,
2013-06-17 01:11:00,69.3,65.5,29.91,SE,145,0.0,0.0,88,0.00,,,0.00,meteohub,2013-06-17 05:11:00,
2013-06-17 01:16:00,69.3,65.5,29.91,SE,145,0.0,0.0,88,0.00,,,0.00,meteohub,2013-06-17 05:16:00,
2013-06-17 01:21:00,69.1,65.3,29.91,SE,145,0.0,0.0,88,0.00,,,0.00,meteohub,2013-06-17 05:21:00,
2013-06-17 01:26:00,69.1,65.7,29.91,SE,145,0.0,1.0,89,0.00,,,0.00,meteohub,2013-06-17 05:26:00,
2013-06-17 01:31:00,69.1,65.7,29.91,SE,145,0.0,1.0,89,0.00,,,0.00,meteohub,2013-06-17 05:31:00,
2013-06-17 01:36:00,68.7,65.3,29.91,SE,145,0.0,1.0,89,0.00,,,0.00,meteohub,2013-06-17 05:36:00,
2013-06-17 01:41:00,68.5,65.1,29.91,SE,145,0.0,0.0,89,0.00,,,0.00,meteohub,2013-06-17 05:41:00,
2013-06-17 01:46:00,68.4,64.9,29.91,SE,145,0.0,1.0,89,0.00,,,0.00,meteohub,2013-06-17 05:46:00,
2013-06-17 01:51:00,68.4,64.9,29.91,SE,145,0.0,1.0,89,0.00,,,0.00,meteohub,2013-06-17 05:51:00,
2013-06-17 01:56:00,68.4,65.3,29.91,SE,139,0.0,1.0,90,0.00,,,0.00,meteohub,2013-06-17 05:56:00,
2013-06-17 02:01:00,68.2,65.1,29.91,SSE,158,0.0,0.0,90,0.00,,,0.00,meteohub,2013-06-17 06:01:00,
2013-06-17 02:06:00,68.2,65.1,29.91,SSE,157,0.0,0.0,90,0.00,,,0.00,meteohub,2013-06-17 06:06:00,
2013-06-17 02:11:00,68.4,65.7,29.91,SSE,154,0.0,1.0,91,0.00,,,0.00,meteohub,2013-06-17 06:11:00,
2013-06-17 02:16:00,68.4,65.3,29.91,SSE,153,0.0,1.0,90,0.00,,,0.00,meteohub,2013-06-17 06:16:00,
2013-06-17 02:21:00,68.2,65.1,29.91,SSE,153,0.0,1.0,90,0.00,,,0.00,meteohub,2013-06-17 06:21:00,
2013-06-17 02:26:00,68.2,65.1,29.91,SSE,153,0.0,0.0,90,0.00,,,0.00,meteohub,2013-06-17 06:26:00,
2013-06-17 02:31:00,68.2,65.5,29.91,SSE,153,0.0,0.0,91,0.00,,,0.00,meteohub,2013-06-17 06:31:00,
2013-06-17 02:36:00,68.2,65.5,29.91,SSW,200,0.0,2.0,91,0.00,,,0.00,meteohub,2013-06-17 06:36:00,
2013-06-17 02:41:00,68.2,65.5,29.92,SSW,195,0.0,2.0,91,0.00,,,0.00,meteohub,2013-06-17 06:41:00,
2013-06-17 02:46:00,68.2,65.5,29.92,SW,232,0.0,2.0,91,0.00,,,0.00,meteohub,2013-06-17 06:46:00,
2013-06-17 02:51:00,68.2,65.5,29.91,SSE,155,0.0,2.0,91,0.00,,,0.00,meteohub,2013-06-17 06:51:00,
2013-06-17 02:56:00,68.0,65.3,29.91,SSE,155,0.0,2.0,91,0.00,,,0.00,meteohub,2013-06-17 06:56:00,
2013-06-17 03:01:00,68.0,65.3,29.91,SSE,153,0.0,1.0,91,0.00,,,0.00,meteohub,2013-06-17 07:01:00,
2013-06-17 03:06:00,67.8,65.1,29.91,SSE,166,0.0,0.0,91,0.00,,,0.00,meteohub,2013-06-17 07:06:00,
2013-06-17 03:11:00,67.8,65.1,29.91,SSE,166,0.0,0.0,91,0.00,,,0.00,meteohub,2013-06-17 07:11:00,
2013-06-17 03:16:00,67.6,65.3,29.91,SSE,162,0.0,0.0,92,0.00,,,0.00,meteohub,2013-06-17 07:16:00,
2013-06-17 03:21:00,67.6,65.3,29.91,SW,222,0.0,0.0,92,0.00,,,0.00,meteohub,2013-06-17 07:21:00,
2013-06-17 03:26:00,67.5,65.1,29.91,SW,222,0.0,1.0,92,0.00,,,0.00,meteohub,2013-06-17 07:26:00,
2013-06-17 03:31:00,67.5,65.1,29.92,SW,222,0.0,1.0,92,0.00,,,0.00,meteohub,2013-06-17 07:31:00,
2013-06-17 03:36:00,67.5,65.1,29.92,SW,222,0.0,1.0,92,0.00,,,0.00,meteohub,2013-06-17 07:36:00,
2013-06-17 03:41:00,67.3,64.9,29.93,SW,222,0.0,0.0,92,0.00,,,0.00,meteohub,2013-06-17 07:41:00,
2013-06-17 03:46:00,67.1,64.8,29.92,SW,221,0.0,1.0,92,0.00,,,0.00,meteohub,2013-06-17 07:46:00,
2013-06-17 03:51:00,67.1,64.9,29.92,SW,219,0.0,1.0,93,0.00,,,0.00,meteohub,2013-06-17 07:51:00,
2013-06-17 03:56:00,67.1,64.9,29.92,SW,218,0.0,1.0,93,0.00,,,0.00,meteohub,2013-06-17 07:56:00,
2013-06-17 04:01:00,66.9,64.8,29.92,SW,218,0.0,1.0,93,0.00,,,0.00,meteohub,2013-06-17 08:01:00,
2013-06-17 04:06:00,66.9,64.8,29.93,SW,219,0.0,0.0,93,0.00,,,0.00,meteohub,2013-06-17 08:06:00,
2013-06-17 04:11:00,66.7,64.6,29.93,SW,218,0.0,0.0,93,0.00,,,0.00,meteohub,2013-06-17 08:11:00,
2013-06-17 04:16:00,66.7,64.6,29.93,SW,219,0.0,0.0,93,0.00,,,0.00,meteohub,2013-06-17 08:16:00,
2013-06-17 04:21:00,66.6,64.4,29.93,SW,219,0.0,0.0,93,0.00,,,0.00,meteohub,2013-06-17 08:21:00,
2013-06-17 04:26:00,66.4,64.2,29.93,SW,219,0.0,0.0,93,0.00,,,0.00,meteohub,2013-06-17 08:26:00,
2013-06-17 04:31:00,66.2,64.4,29.93,SW,219,0.0,0.0,94,0.00,,,0.00,meteohub,2013-06-17 08:31:00,
2013-06-17 04:36:00,66.0,64.2,29.93,SW,219,0.0,0.0,94,0.00,,,0.00,meteohub,2013-06-17 08:36:00,
2013-06-17 04:41:00,65.8,64.0,29.93,SW,220,0.0,0.0,94,0.00,,,0.00,meteohub,2013-06-17 08:41:00,
2013-06-17 04:46:00,65.8,64.0,29.93,SW,218,0.0,0.0,94,0.00,,,0.00,meteohub,2013-06-17 08:46:00,
2013-06-17 04:51:00,65.8,64.0,29.93,SW,218,0.0,0.0,94,0.00,,,0.00,meteohub,2013-06-17 08:51:00,
2013-06-17 04:56:00,65.7,64.2,29.93,SW,218,0.0,0.0,95,0.00,,,0.00,meteohub,2013-06-17 08:56:00,
2013-06-17 05:01:00,65.7,64.2,29.93,SW,218,0.0,0.0,95,0.00,,,0.00,meteohub,2013-06-17 09:01:00,
2013-06-17 05:06:00,65.5,64.0,29.93,SW,219,0.0,0.0,95,0.00,,,0.00,meteohub,2013-06-17 09:06:00,
2013-06-17 05:11:00,65.5,64.0,29.93,SW,219,0.0,0.0,95,0.00,,,0.00,meteohub,2013-06-17 09:11:00,
2013-06-17 05:16:00,65.5,64.0,29.94,SW,218,0.0,0.0,95,0.00,,,0.00,meteohub,2013-06-17 09:16:00,
2013-06-17 05:21:00,65.5,64.0,29.94,SW,219,0.0,0.0,95,0.00,,,0.00,meteohub,2013-06-17 09:21:00,
2013-06-17 05:26:00,65.5,64.0,29.94,SW,219,0.0,0.0,95,0.00,,,0.00,meteohub,2013-06-17 09:26:00,
2013-06-17 05:31:00,65.3,63.9,29.94,SW,219,0.0,0.0,95,0.00,,,0.00,meteohub,2013-06-17 09:31:00,
2013-06-17 05:36:00,65.1,63.7,29.94,SW,218,0.0,0.0,95,0.00,,,0.00,meteohub,2013-06-17 09:36:00,
2013-06-17 05:41:00,65.1,64.0,29.94,SW,219,0.0,0.0,96,0.00,,,0.00,meteohub,2013-06-17 09:41:00,
2013-06-17 05:46:00,65.3,64.0,29.94,SW,219,0.0,0.0,96,0.00,,,0.00,meteohub,2013-06-17 09:46:00,
2013-06-17 05:51:00,65.5,64.2,29.94,SW,218,0.0,1.0,96,0.00,,,0.00,meteohub,2013-06-17 09:51:00,
2013-06-17 05:56:00,65.8,64.9,29.94,SW,229,0.0,3.0,97,0.00,,,0.00,meteohub,2013-06-17 09:56:00,
2013-06-17 06:01:00,66.0,64.8,29.94,SW,217,0.0,3.0,96,0.00,,,0.00,meteohub,2013-06-17 10:01:00,
2013-06-17 06:06:00,66.2,64.9,29.94,SW,217,0.0,3.0,96,0.00,,,0.00,meteohub,2013-06-17 10:06:00,
2013-06-17 06:11:00,66.4,65.1,29.94,SW,217,0.0,2.0,96,0.00,,,0.00,meteohub,2013-06-17 10:11:00,
2013-06-17 06:16:00,66.6,65.3,29.94,WNW,288,1.0,1.0,96,0.00,,,0.00,meteohub,2013-06-17 10:16:00,
2013-06-17 06:21:00,66.7,65.5,29.94,SW,236,0.0,2.0,96,0.00,,,0.00,meteohub,2013-06-17 10:21:00,
2013-06-17 06:26:00,66.9,65.7,29.94,SW,236,0.0,2.0,96,0.00,,,0.00,meteohub,2013-06-17 10:26:00,
2013-06-17 06:31:00,66.9,65.7,29.94,WNW,297,0.0,2.0,96,0.00,,,0.00,meteohub,2013-06-17 10:31:00,
2013-06-17 06:36:00,67.3,66.0,29.94,WNW,297,0.0,2.0,96,0.00,,,0.00,meteohub,2013-06-17 10:36:00,
2013-06-17 06:41:00,67.3,65.8,29.94,WNW,296,0.0,2.0,95,0.00,,,0.00,meteohub,2013-06-17 10:41:00,
2013-06-17 06:46:00,67.5,66.0,29.94,West,275,0.0,1.0,95,0.00,,,0.00,meteohub,2013-06-17 10:46:00,
2013-06-17 06:51:00,67.6,66.2,29.94,WNW,283,1.0,1.0,95,0.00,,,0.00,meteohub,2013-06-17 10:51:00,
2013-06-17 06:56:00,67.8,66.4,29.95,WNW,294,1.0,3.0,95,0.00,,,0.00,meteohub,2013-06-17 10:56:00,
2013-06-17 07:01:00,68.2,66.4,29.95,West,269,4.0,4.0,94,0.00,,,0.00,meteohub,2013-06-17 11:01:00,
2013-06-17 07:06:00,68.4,66.2,29.95,WNW,301,3.0,5.0,93,0.00,,,0.00,meteohub,2013-06-17 11:06:00,
2013-06-17 07:11:00,68.5,66.2,29.95,WNW,287,1.0,5.0,92,0.00,,,0.00,meteohub,2013-06-17 11:11:00,
2013-06-17 07:16:00,68.5,66.2,29.94,WNW,288,0.0,5.0,92,0.00,,,0.00,meteohub,2013-06-17 11:16:00,
2013-06-17 07:21:00,68.7,66.4,29.94,WNW,288,0.0,3.0,92,0.00,,,0.00,meteohub,2013-06-17 11:21:00,
2013-06-17 07:26:00,68.7,66.0,29.95,West,281,1.0,3.0,91,0.00,,,0.00,meteohub,2013-06-17 11:26:00,
2013-06-17 07:31:00,68.9,66.2,29.95,NW,311,1.0,4.0,91,0.00,,,0.00,meteohub,2013-06-17 11:31:00,
2013-06-17 07:36:00,69.1,66.4,29.95,WNW,296,1.0,4.0,91,0.00,,,0.00,meteohub,2013-06-17 11:36:00,
2013-06-17 07:42:00,69.3,66.2,29.95,WNW,285,1.0,4.0,90,0.00,,,0.00,meteohub,2013-06-17 11:42:00,
2013-06-17 07:47:00,69.6,66.6,29.95,WNW,285,2.0,3.0,90,0.00,,,0.00,meteohub,2013-06-17 11:47:00,
2013-06-17 07:52:00,70.2,66.7,29.95,WNW,285,1.0,3.0,89,0.00,,,0.00,meteohub,2013-06-17 11:52:00,
2013-06-17 07:57:00,70.5,66.7,29.95,NW,312,2.0,4.0,88,0.00,,,0.00,meteohub,2013-06-17 11:57:00,
2013-06-17 08:02:00,70.9,66.7,29.96,WNW,294,2.0,4.0,87,0.00,,,0.00,meteohub,2013-06-17 12:02:00,
2013-06-17 08:07:00,71.1,66.7,29.96,WNW,297,4.0,5.0,86,0.00,,,0.00,meteohub,2013-06-17 12:07:00,
2013-06-17 08:12:00,71.4,67.3,29.96,West,273,0.0,5.0,87,0.00,,,0.00,meteohub,2013-06-17 12:12:00,
2013-06-17 08:16:00,72.0,67.5,29.96,WNW,297,0.0,5.0,86,0.00,,,0.00,meteohub,2013-06-17 12:16:00,
2013-06-17 08:21:00,72.3,67.6,29.96,WNW,293,1.0,5.0,85,0.00,,,0.00,meteohub,2013-06-17 12:21:00,
2013-06-17 08:26:00,72.7,67.6,29.96,WNW,300,3.0,5.0,84,0.00,,,0.00,meteohub,2013-06-17 12:26:00,
2013-06-17 08:31:00,73.0,67.6,29.96,WNW,302,3.0,6.0,83,0.00,,,0.00,meteohub,2013-06-17 12:31:00,
2013-06-17 08:36:00,73.0,67.3,29.96,West,269,5.0,7.0,82,0.00,,,0.00,meteohub,2013-06-17 12:36:00,
2013-06-17 08:41:00,73.2,67.5,29.96,NW,308,3.0,7.0,82,0.00,,,0.00,meteohub,2013-06-17 12:41:00,
2013-06-17 08:46:00,73.4,67.6,29.95,WNW,297,1.0,7.0,82,0.00,,,0.00,meteohub,2013-06-17 12:46:00,
2013-06-17 08:51:00,73.6,67.5,29.95,WNW,301,1.0,6.0,81,0.00,,,0.00,meteohub,2013-06-17 12:51:00,
2013-06-17 08:56:00,73.9,67.5,29.95,WNW,295,5.0,7.0,80,0.00,,,0.00,meteohub,2013-06-17 12:56:00,
2013-06-17 09:01:00,74.1,67.1,29.95,WNW,287,3.0,7.0,79,0.00,,,0.00,meteohub,2013-06-17 13:01:00,
2013-06-17 09:06:00,74.5,67.5,29.95,WNW,288,7.0,7.0,79,0.00,,,0.00,meteohub,2013-06-17 13:06:00,
2013-06-17 09:11:00,74.7,67.6,29.95,NW,305,2.0,8.0,79,0.00,,,0.00,meteohub,2013-06-17 13:11:00,
2013-06-17 09:16:00,75.0,67.3,29.95,WNW,296,3.0,8.0,77,0.00,,,0.00,meteohub,2013-06-17 13:16:00,
2013-06-17 09:21:00,75.6,68.2,29.95,WNW,300,2.0,8.0,78,0.00,,,0.00,meteohub,2013-06-17 13:21:00,
2013-06-17 09:26:00,75.9,67.8,29.95,NW,312,5.0,8.0,76,0.00,,,0.00,meteohub,2013-06-17 13:26:00,
2013-06-17 09:31:00,76.1,68.0,29.95,WSW,255,1.0,7.0,76,0.00,,,0.00,meteohub,2013-06-17 13:31:00,
2013-06-17 09:36:00,76.3,68.5,29.95,WNW,298,4.0,7.0,77,0.00,,,0.00,meteohub,2013-06-17 13:36:00,
2013-06-17 09:41:00,76.5,68.4,29.94,WNW,290,2.0,7.0,76,0.00,,,0.00,meteohub,2013-06-17 13:41:00,
2013-06-17 09:46:00,77.2,68.7,29.94,West,272,4.0,7.0,75,0.00,,,0.00,meteohub,2013-06-17 13:46:00,
2013-06-17 09:51:00,77.4,68.4,29.94,NW,304,5.0,7.0,74,0.00,,,0.00,meteohub,2013-06-17 13:51:00,
2013-06-17 09:56:00,77.7,69.1,29.94,WNW,295,5.0,6.0,75,0.00,,,0.00,meteohub,2013-06-17 13:56:00,
2013-06-17 10:01:00,78.4,69.4,29.94,WNW,300,4.0,6.0,74,0.00,,,0.00,meteohub,2013-06-17 14:01:00,
2013-06-17 10:06:00,78.4,68.2,29.94,West,270,4.0,6.0,71,0.00,,,0.00,meteohub,2013-06-17 14:06:00,
2013-06-17 10:11:00,78.6,68.4,29.94,NW,319,3.0,6.0,71,0.00,,,0.00,meteohub,2013-06-17 14:11:00,
2013-06-17 10:16:00,78.6,68.4,29.94,West,274,5.0,8.0,71,0.00,,,0.00,meteohub,2013-06-17 14:16:00,
2013-06-17 10:21:00,78.8,68.5,29.94,WSW,252,3.0,8.0,71,0.00,,,0.00,meteohub,2013-06-17 14:21:00,
2013-06-17 10:26:00,79.5,69.3,29.94,West,271,1.0,8.0,71,0.00,,,0.00,meteohub,2013-06-17 14:26:00,
2013-06-17 10:31:00,80.2,68.7,29.94,NW,315,1.0,7.0,68,0.00,,,0.00,meteohub,2013-06-17 14:31:00,
2013-06-17 10:36:00,80.4,68.5,29.94,WNW,296,2.0,6.0,67,0.00,,,0.00,meteohub,2013-06-17 14:36:00,
2013-06-17 10:41:00,80.8,68.7,29.94,WNW,296,4.0,6.0,67,0.00,,,0.00,meteohub,2013-06-17 14:41:00,
2013-06-17 10:46:00,80.8,68.7,29.93,West,275,3.0,7.0,67,0.00,,,0.00,meteohub,2013-06-17 14:46:00,
2013-06-17 10:51:00,81.0,68.0,29.93,West,271,3.0,7.0,65,0.00,,,0.00,meteohub,2013-06-17 14:51:00,
2013-06-17 10:56:00,81.1,68.7,29.92,NW,304,2.0,7.0,66,0.00,,,0.00,meteohub,2013-06-17 14:56:00,
2013-06-17 11:01:00,81.5,69.1,29.92,NW,322,2.0,7.0,66,0.00,,,0.00,meteohub,2013-06-17 15:01:00,
2013-06-17 11:06:00,81.9,68.5,29.92,SSW,208,1.0,7.0,64,0.00,,,0.00,meteohub,2013-06-17 15:06:00,
2013-06-17 11:11:00,82.2,69.3,29.92,NW,324,1.0,8.0,65,0.00,,,0.00,meteohub,2013-06-17 15:11:00,
2013-06-17 11:16:00,82.2,68.4,29.91,NW,323,5.0,8.0,63,0.00,,,0.00,meteohub,2013-06-17 15:16:00,
2013-06-17 11:21:00,82.0,68.7,29.92,NW,304,7.0,11.0,64,0.00,,,0.00,meteohub,2013-06-17 15:21:00,
2013-06-17 11:26:00,81.7,67.8,29.92,WNW,291,7.0,11.0,63,0.00,,,0.00,meteohub,2013-06-17 15:26:00,
2013-06-17 11:31:00,81.7,68.4,29.92,NW,323,0.0,11.0,64,0.00,,,0.00,meteohub,2013-06-17 15:31:00,
2013-06-17 11:36:00,82.2,68.4,29.92,SSW,208,1.0,9.0,63,0.00,,,0.00,meteohub,2013-06-17 15:36:00,
2013-06-17 11:42:00,82.2,67.8,29.92,SW,226,0.0,8.0,62,0.00,,,0.00,meteohub,2013-06-17 15:42:00,
2013-06-17 11:47:00,82.2,67.5,29.92,WNW,295,0.0,8.0,61,0.00,,,0.00,meteohub,2013-06-17 15:47:00,
2013-06-17 11:52:00,82.6,68.7,29.92,ESE,121,3.0,13.0,63,0.00,,,0.00,meteohub,2013-06-17 15:52:00,
2013-06-17 11:57:00,83.5,69.1,29.92,West,266,1.0,13.0,62,0.00,,,0.00,meteohub,2013-06-17 15:57:00,
2013-06-17 12:02:00,83.7,68.4,29.92,NNW,334,6.0,13.0,60,0.00,,,0.00,meteohub,2013-06-17 16:02:00,
2013-06-17 12:07:00,83.7,68.4,29.92,NW,304,3.0,8.0,60,0.00,,,0.00,meteohub,2013-06-17 16:07:00,
2013-06-17 12:12:00,83.8,68.5,29.92,NW,309,1.0,8.0,60,0.00,,,0.00,meteohub,2013-06-17 16:12:00,
2013-06-17 12:17:00,83.7,67.8,29.92,SE,134,1.0,8.0,59,0.00,,,0.00,meteohub,2013-06-17 16:17:00,
2013-06-17 12:22:00,83.7,67.8,29.92,SW,230,1.0,6.0,59,0.00,,,0.00,meteohub,2013-06-17 16:22:00,
2013-06-17 12:27:00,83.8,67.5,29.92,WNW,298,1.0,6.0,58,0.00,,,0.00,meteohub,2013-06-17 16:27:00,
2013-06-17 12:32:00,83.1,68.4,29.92,NW,304,2.0,8.0,61,0.00,,,0.00,meteohub,2013-06-17 16:32:00,
2013-06-17 12:37:00,83.3,68.9,29.92,WNW,288,3.0,8.0,62,0.00,,,0.00,meteohub,2013-06-17 16:37:00,
2013-06-17 12:42:00,83.5,67.6,29.92,NNW,335,2.0,9.0,59,0.00,,,0.00,meteohub,2013-06-17 16:42:00,
2013-06-17 12:47:00,83.7,67.8,29.92,NW,317,3.0,11.0,59,0.00,,,0.00,meteohub,2013-06-17 16:47:00,
2013-06-17 12:52:00,84.0,68.2,29.92,North,357,2.0,11.0,59,0.00,,,0.00,meteohub,2013-06-17 16:52:00,
2013-06-17 12:57:00,84.0,67.6,29.92,West,264,2.0,11.0,58,0.00,,,0.00,meteohub,2013-06-17 16:57:00,
2013-06-17 13:02:00,84.0,68.2,29.92,WSW,250,0.0,11.0,59,0.00,,,0.00,meteohub,2013-06-17 17:02:00,
2013-06-17 13:07:00,84.7,67.8,29.92,SW,214,1.0,11.0,57,0.00,,,0.00,meteohub,2013-06-17 17:07:00,
2013-06-17 13:12:00,84.7,66.7,29.91,ESE,121,1.0,8.0,55,0.00,,,0.00,meteohub,2013-06-17 17:12:00,
2013-06-17 13:17:00,84.9,67.5,29.91,NW,304,2.0,9.0,56,0.00,,,0.00,meteohub,2013-06-17 17:17:00,
2013-06-17 13:22:00,84.9,68.0,29.91,WNW,293,7.0,9.0,57,0.00,,,0.00,meteohub,2013-06-17 17:22:00,
2013-06-17 13:27:00,85.3,66.7,29.91,SSE,160,2.0,9.0,54,0.00,,,0.00,meteohub,2013-06-17 17:27:00,
2013-06-17 13:32:00,85.3,66.7,29.91,West,267,1.0,9.0,54,0.00,,,0.00,meteohub,2013-06-17 17:32:00,
2013-06-17 13:37:00,85.3,67.3,29.91,WNW,295,3.0,9.0,55,0.00,,,0.00,meteohub,2013-06-17 17:37:00,
2013-06-17 13:42:00,84.7,66.7,29.90,WNW,291,2.0,9.0,55,0.00,,,0.00,meteohub,2013-06-17 17:42:00,
2013-06-17 13:47:00,84.6,67.1,29.90,WNW,289,2.0,12.0,56,0.00,,,0.00,meteohub,2013-06-17 17:47:00,
2013-06-17 13:52:00,84.7,67.3,29.90,SSE,152,5.0,12.0,56,0.00,,,0.00,meteohub,2013-06-17 17:52:00,
2013-06-17 13:57:00,85.6,66.6,29.90,WNW,300,8.0,12.0,53,0.00,,,0.00,meteohub,2013-06-17 17:57:00,
2013-06-17 14:02:00,85.1,66.6,29.90,WNW,302,6.0,13.0,54,0.00,,,0.00,meteohub,2013-06-17 18:02:00,
2013-06-17 14:07:00,85.6,68.2,29.90,NW,315,4.0,13.0,56,0.00,,,0.00,meteohub,2013-06-17 18:07:00,
2013-06-17 14:12:00,86.0,66.9,29.90,NNW,332,4.0,13.0,53,0.00,,,0.00,meteohub,2013-06-17 18:12:00,
2013-06-17 14:17:00,86.5,67.5,29.89,West,273,4.0,13.0,53,0.00,,,0.00,meteohub,2013-06-17 18:17:00,
2013-06-17 14:22:00,86.2,66.6,29.89,WNW,302,4.0,12.0,52,0.00,,,0.00,meteohub,2013-06-17 18:22:00,
2013-06-17 14:27:00,85.6,67.1,29.89,North,349,1.0,10.0,54,0.00,,,0.00,meteohub,2013-06-17 18:27:00,
2013-06-17 14:32:00,85.8,67.3,29.89,WNW,295,7.0,10.0,54,0.00,,,0.00,meteohub,2013-06-17 18:32:00,
2013-06-17 14:37:00,86.0,66.9,29.89,WNW,300,4.0,8.0,53,0.00,,,0.00,meteohub,2013-06-17 18:37:00,
2013-06-17 14:42:00,86.5,68.0,29.88,SSW,201,1.0,10.0,54,0.00,,,0.00,meteohub,2013-06-17 18:42:00,
2013-06-17 14:47:00,87.3,67.5,29.88,WSW,256,1.0,10.0,52,0.00,,,0.00,meteohub,2013-06-17 18:47:00,
2013-06-17 14:52:00,86.5,66.7,29.89,NW,325,1.0,10.0,52,0.00,,,0.00,meteohub,2013-06-17 18:52:00,
2013-06-17 14:57:00,86.2,67.1,29.89,WNW,284,2.0,10.0,53,0.00,,,0.00,meteohub,2013-06-17 18:57:00,
2013-06-17 15:02:00,85.6,67.1,29.89,WNW,300,7.0,10.0,54,0.00,,,0.00,meteohub,2013-06-17 19:02:00,
2013-06-17 15:07:00,85.3,66.2,29.90,NW,304,5.0,12.0,53,0.00,,,0.00,meteohub,2013-06-17 19:07:00,
2013-06-17 15:12:00,84.7,67.3,29.90,NW,309,3.0,12.0,56,0.00,,,0.00,meteohub,2013-06-17 19:12:00,
2013-06-17 15:17:00,84.7,66.7,29.90,WNW,300,3.0,12.0,55,0.00,,,0.00,meteohub,2013-06-17 19:17:00,
2013-06-17 15:22:00,84.7,66.7,29.89,NW,325,2.0,11.0,55,0.00,,,0.00,meteohub,2013-06-17 19:22:00,
2013-06-17 15:27:00,84.6,66.6,29.89,NW,304,8.0,10.0,55,0.00,,,0.00,meteohub,2013-06-17 19:27:00,
2013-06-17 15:32:00,84.0,66.6,29.89,WNW,298,2.0,11.0,56,0.00,,,0.00,meteohub,2013-06-17 19:32:00,
2013-06-17 15:37:00,82.8,68.4,29.89,WNW,294,7.0,11.0,62,0.00,,,0.00,meteohub,2013-06-17 19:37:00,
2013-06-17 15:42:00,80.8,69.3,29.89,WNW,301,8.0,11.0,68,0.00,,,0.00,meteohub,2013-06-17 19:42:00,
2013-06-17 15:47:00,80.2,68.4,29.88,West,277,3.0,12.0,67,0.00,,,0.00,meteohub,2013-06-17 19:47:00,
2013-06-17 15:52:00,80.6,66.4,29.88,NW,314,2.0,12.0,62,0.00,,,0.00,meteohub,2013-06-17 19:52:00,
2013-06-17 15:57:00,81.0,64.2,29.88,NW,320,2.0,12.0,57,0.00,,,0.00,meteohub,2013-06-17 19:57:00,
2013-06-17 16:02:00,81.5,63.9,29.88,WNW,288,3.0,8.0,55,0.00,,,0.00,meteohub,2013-06-17 20:02:00,
2013-06-17 16:07:00,82.0,62.1,29.89,WNW,296,5.0,7.0,51,0.00,,,0.00,meteohub,2013-06-17 20:07:00,
2013-06-17 16:12:00,81.9,61.9,29.89,West,280,4.0,8.0,51,0.00,,,0.00,meteohub,2013-06-17 20:12:00,
2013-06-17 16:17:00,81.1,63.0,29.89,WNW,300,5.0,8.0,54,0.00,,,0.00,meteohub,2013-06-17 20:17:00,
2013-06-17 16:22:00,80.4,63.3,29.89,WNW,300,4.0,8.0,56,0.00,,,0.00,meteohub,2013-06-17 20:22:00,
2013-06-17 16:27:00,80.1,63.9,29.89,WNW,295,2.0,8.0,58,0.00,,,0.00,meteohub,2013-06-17 20:27:00,
2013-06-17 16:32:00,79.5,63.9,29.89,NW,311,2.0,7.0,59,0.00,,,0.00,meteohub,2013-06-17 20:32:00,
2013-06-17 16:37:00,79.2,64.0,29.89,NW,315,4.0,7.0,60,0.00,,,0.00,meteohub,2013-06-17 20:37:00,
2013-06-17 16:42:00,78.6,65.5,29.89,NW,309,6.0,7.0,64,0.00,,,0.00,meteohub,2013-06-17 20:42:00,
2013-06-17 16:47:00,77.7,65.8,29.89,NW,312,4.0,10.0,67,0.00,,,0.00,meteohub,2013-06-17 20:47:00,
2013-06-17 16:52:00,77.2,66.2,29.89,NW,312,0.0,10.0,69,0.00,,,0.00,meteohub,2013-06-17 20:52:00,
2013-06-17 16:57:00,76.8,66.7,29.89,WNW,298,2.0,10.0,71,0.00,,,0.00,meteohub,2013-06-17 20:57:00,
2013-06-17 17:02:00,77.2,64.9,29.88,West,270,1.0,11.0,66,0.00,,,0.00,meteohub,2013-06-17 21:02:00,
2013-06-17 17:07:00,78.3,64.6,29.88,SSW,197,1.0,11.0,63,0.00,,,0.00,meteohub,2013-06-17 21:07:00,
2013-06-17 17:12:00,79.9,65.3,29.88,NW,315,3.0,11.0,61,0.00,,,0.00,meteohub,2013-06-17 21:12:00,
2013-06-17 17:17:00,81.1,64.0,29.88,WNW,285,0.0,5.0,56,0.00,,,0.00,meteohub,2013-06-17 21:17:00,
2013-06-17 17:22:00,82.4,64.6,29.88,NW,312,2.0,4.0,55,0.00,,,0.00,meteohub,2013-06-17 21:22:00,
2013-06-17 17:27:00,83.1,63.7,29.88,WNW,284,2.0,6.0,52,0.00,,,0.00,meteohub,2013-06-17 21:27:00,
2013-06-17 17:32:00,84.2,64.6,29.87,WNW,296,2.0,6.0,52,0.00,,,0.00,meteohub,2013-06-17 21:32:00,
2013-06-17 17:37:00,84.7,63.5,29.88,West,259,2.0,6.0,49,0.00,,,0.00,meteohub,2013-06-17 21:37:00,
2013-06-17 17:42:00,84.6,63.3,29.88,WNW,285,3.0,5.0,49,0.00,,,0.00,meteohub,2013-06-17 21:42:00,
2013-06-17 17:47:00,84.6,63.9,29.88,WNW,285,2.0,6.0,50,0.00,,,0.00,meteohub,2013-06-17 21:47:00,
2013-06-17 17:52:00,84.4,63.7,29.89,WNW,294,2.0,6.0,50,0.00,,,0.00,meteohub,2013-06-17 21:52:00,
2013-06-17 17:57:00,84.2,63.5,29.89,West,273,4.0,6.0,50,0.00,,,0.00,meteohub,2013-06-17 21:57:00,
2013-06-17 18:02:00,84.0,64.6,29.89,WNW,290,8.0,9.0,52,0.00,,,0.00,meteohub,2013-06-17 22:02:00,
2013-06-17 18:07:00,83.3,65.5,29.89,WSW,257,1.0,9.0,55,0.00,,,0.00,meteohub,2013-06-17 22:07:00,
2013-06-17 18:13:00,83.1,66.4,29.89,West,263,1.0,9.0,57,0.00,,,0.00,meteohub,2013-06-17 22:13:00,
2013-06-17 18:18:00,82.9,66.6,29.89,WNW,283,2.0,8.0,58,0.00,,,0.00,meteohub,2013-06-17 22:18:00,
2013-06-17 18:23:00,82.8,66.9,29.89,WNW,295,6.0,7.0,59,0.00,,,0.00,meteohub,2013-06-17 22:23:00,
2013-06-17 18:28:00,82.2,66.4,29.89,WNW,283,1.0,7.0,59,0.00,,,0.00,meteohub,2013-06-17 22:28:00,
2013-06-17 18:33:00,82.8,66.9,29.89,NNW,332,1.0,7.0,59,0.00,,,0.00,meteohub,2013-06-17 22:33:00,
2013-06-17 18:38:00,82.6,66.4,29.89,WNW,290,6.0,7.0,58,0.00,,,0.00,meteohub,2013-06-17 22:38:00,
2013-06-17 18:43:00,81.9,66.2,29.89,WNW,291,4.0,11.0,59,0.00,,,0.00,meteohub,2013-06-17 22:43:00,
2013-06-17 18:47:00,81.7,65.5,29.89,North,5,2.0,11.0,58,0.00,,,0.00,meteohub,2013-06-17 22:47:00,
2013-06-17 18:53:00,81.3,64.6,29.89,WNW,291,1.0,11.0,57,0.00,,,0.00,meteohub,2013-06-17 22:53:00,
2013-06-17 18:58:00,81.3,65.7,29.89,WNW,285,0.0,8.0,59,0.00,,,0.00,meteohub,2013-06-17 22:58:00,
2013-06-17 19:03:00,81.9,65.1,29.90,SW,231,1.0,8.0,57,0.00,,,0.00,meteohub,2013-06-17 23:03:00,
2013-06-17 19:08:00,81.9,64.6,29.90,West,277,1.0,8.0,56,0.00,,,0.00,meteohub,2013-06-17 23:08:00,
2013-06-17 19:13:00,81.9,65.1,29.90,WSW,251,0.0,3.0,57,0.00,,,0.00,meteohub,2013-06-17 23:13:00,
2013-06-17 19:18:00,81.7,64.9,29.90,SW,218,0.0,3.0,57,0.00,,,0.00,meteohub,2013-06-17 23:18:00,
2013-06-17 19:23:00,81.5,65.3,29.91,SSW,204,0.0,3.0,58,0.00,,,0.00,meteohub,2013-06-17 23:23:00,
2013-06-17 19:28:00,81.1,64.9,29.90,WNW,298,0.0,3.0,58,0.00,,,0.00,meteohub,2013-06-17 23:28:00,
2013-06-17 19:33:00,80.8,64.6,29.91,West,281,0.0,3.0,58,0.00,,,0.00,meteohub,2013-06-17 23:33:00,
2013-06-17 19:38:00,80.4,64.2,29.91,West,280,0.0,3.0,58,0.00,,,0.00,meteohub,2013-06-17 23:38:00,
2013-06-17 19:43:00,80.2,64.6,29.91,West,279,0.0,3.0,59,0.00,,,0.00,meteohub,2013-06-17 23:43:00,
2013-06-17 19:48:00,80.2,64.6,29.91,SW,236,0.0,2.0,59,0.00,,,0.00,meteohub,2013-06-17 23:48:00,
2013-06-17 19:53:00,80.1,64.4,29.91,SW,221,0.0,2.0,59,0.00,,,0.00,meteohub,2013-06-17 23:53:00,
2013-06-17 19:58:00,79.9,64.8,29.91,SSE,160,0.0,1.0,60,0.00,,,0.00,meteohub,2013-06-17 23:58:00,
2013-06-17 20:03:00,79.5,64.4,29.91,South,169,0.0,2.0,60,0.00,,,0.00,meteohub,2013-06-18 00:03:00,
2013-06-17 20:08:00,79.3,64.8,29.91,SSE,158,0.0,2.0,61,0.00,,,0.00,meteohub,2013-06-18 00:08:00,
2013-06-17 20:13:00,79.2,64.6,29.91,SSE,158,0.0,2.0,61,0.00,,,0.00,meteohub,2013-06-18 00:13:00,
2013-06-17 20:18:00,78.8,64.8,29.91,SSE,157,0.0,1.0,62,0.00,,,0.00,meteohub,2013-06-18 00:18:00,
2013-06-17 20:23:00,78.4,64.8,29.91,South,186,2.0,4.0,63,0.00,,,0.00,meteohub,2013-06-18 00:23:00,
2013-06-17 20:28:00,78.3,65.1,29.91,SW,218,2.0,5.0,64,0.00,,,0.00,meteohub,2013-06-18 00:28:00,
2013-06-17 20:33:00,78.1,65.3,29.91,SW,226,0.0,5.0,65,0.00,,,0.00,meteohub,2013-06-18 00:33:00,
2013-06-17 20:38:00,77.7,64.9,29.91,SSW,197,0.0,5.0,65,0.00,,,0.00,meteohub,2013-06-18 00:38:00,
2013-06-17 20:43:00,77.5,65.3,29.92,South,190,0.0,3.0,66,0.00,,,0.00,meteohub,2013-06-18 00:43:00,
2013-06-17 20:48:00,77.4,65.5,29.92,SSE,153,0.0,1.0,67,0.00,,,0.00,meteohub,2013-06-18 00:48:00,
2013-06-17 20:53:00,77.2,65.3,29.92,South,187,0.0,0.0,67,0.00,,,0.00,meteohub,2013-06-18 00:53:00,
2013-06-17 20:58:00,76.8,65.5,29.91,South,187,0.0,0.0,68,0.00,,,0.00,meteohub,2013-06-18 00:58:00,
2013-06-17 21:03:00,76.6,65.3,29.91,South,187,0.0,0.0,68,0.00,,,0.00,meteohub,2013-06-18 01:03:00,
2013-06-17 21:08:00,76.5,65.1,29.92,SW,219,0.0,0.0,68,0.00,,,0.00,meteohub,2013-06-18 01:08:00,
2013-06-17 21:13:00,76.5,65.5,29.92,SW,219,0.0,0.0,69,0.00,,,0.00,meteohub,2013-06-18 01:13:00,
2013-06-17 21:18:00,76.3,65.8,29.92,SW,219,0.0,0.0,70,0.00,,,0.00,meteohub,2013-06-18 01:18:00,
2013-06-17 21:23:00,75.7,65.3,29.92,SW,219,0.0,0.0,70,0.00,,,0.00,meteohub,2013-06-18 01:23:00,
2013-06-17 21:28:00,75.4,65.3,29.92,SW,219,0.0,0.0,71,0.00,,,0.00,meteohub,2013-06-18 01:28:00,
2013-06-17 21:33:00,74.8,65.1,29.92,SW,219,0.0,0.0,72,0.00,,,0.00,meteohub,2013-06-18 01:33:00,
2013-06-17 21:38:00,74.7,65.5,29.93,SW,219,0.0,0.0,73,0.00,,,0.00,meteohub,2013-06-18 01:38:00,
2013-06-17 21:43:00,74.5,65.7,29.93,SW,219,0.0,0.0,74,0.00,,,0.00,meteohub,2013-06-18 01:43:00,
2013-06-17 21:48:00,74.3,65.8,29.93,SSW,205,0.0,0.0,75,0.00,,,0.00,meteohub,2013-06-18 01:48:00,
2013-06-17 21:53:00,74.1,65.7,29.93,South,176,0.0,0.0,75,0.00,,,0.00,meteohub,2013-06-18 01:53:00,
2013-06-17 21:58:00,73.9,65.8,29.94,South,176,0.0,0.0,76,0.00,,,0.00,meteohub,2013-06-18 01:58:00,
2013-06-17 22:03:00,73.6,65.5,29.94,South,176,0.0,0.0,76,0.00,,,0.00,meteohub,2013-06-18 02:03:00,
2013-06-17 22:08:00,73.2,65.7,29.94,South,176,0.0,0.0,77,0.00,,,0.00,meteohub,2013-06-18 02:08:00,
2013-06-17 22:13:00,73.0,65.8,29.94,South,176,0.0,0.0,78,0.00,,,0.00,meteohub,2013-06-18 02:13:00,
2013-06-17 22:18:00,72.9,65.7,29.94,South,176,0.0,0.0,78,0.00,,,0.00,meteohub,2013-06-18 02:18:00,
2013-06-17 22:23:00,72.7,65.8,29.95,South,176,0.0,0.0,79,0.00,,,0.00,meteohub,2013-06-18 02:23:00,
2013-06-17 22:28:00,72.3,65.5,29.95,South,176,0.0,0.0,79,0.00,,,0.00,meteohub,2013-06-18 02:28:00,
2013-06-17 22:33:00,72.1,65.7,29.95,South,176,0.0,0.0,80,0.00,,,0.00,meteohub,2013-06-18 02:33:00,
2013-06-17 22:38:00,72.0,65.8,29.95,South,176,0.0,0.0,81,0.00,,,0.00,meteohub,2013-06-18 02:38:00,
2013-06-17 22:43:00,72.0,65.8,29.95,SW,222,0.0,0.0,81,0.00,,,0.00,meteohub,2013-06-18 02:43:00,
2013-06-17 22:48:00,72.1,66.0,29.95,South,184,0.0,0.0,81,0.00,,,0.00,meteohub,2013-06-18 02:48:00,
2013-06-17 22:53:00,72.1,66.0,29.94,SSW,195,0.0,0.0,81,0.00,,,0.00,meteohub,2013-06-18 02:53:00,
2013-06-17 22:58:00,72.3,66.6,29.94,West,272,0.0,0.0,82,0.00,,,0.00,meteohub,2013-06-18 02:58:00,
2013-06-17 23:03:00,72.7,66.6,29.94,NW,305,0.0,2.0,81,0.00,,,0.00,meteohub,2013-06-18 03:03:00,
2013-06-17 23:08:00,72.9,66.4,29.95,SSE,157,0.0,2.0,80,0.00,,,0.00,meteohub,2013-06-18 03:08:00,
2013-06-17 23:13:00,72.9,66.4,29.95,South,186,0.0,3.0,80,0.00,,,0.00,meteohub,2013-06-18 03:13:00,
2013-06-17 23:18:00,72.9,66.7,29.94,SSE,162,0.0,3.0,81,0.00,,,0.00,meteohub,2013-06-18 03:18:00,
2013-06-17 23:23:00,72.7,66.6,29.94,SSE,162,0.0,3.0,81,0.00,,,0.00,meteohub,2013-06-18 03:23:00,
2013-06-17 23:28:00,72.7,66.6,29.94,SSW,201,0.0,1.0,81,0.00,,,0.00,meteohub,2013-06-18 03:28:00,
2013-06-17 23:33:00,72.5,66.4,29.95,South,181,0.0,0.0,81,0.00,,,0.00,meteohub,2013-06-18 03:33:00,
2013-06-17 23:38:00,72.3,66.2,29.95,SW,219,0.0,2.0,81,0.00,,,0.00,meteohub,2013-06-18 03:38:00,
2013-06-17 23:43:00,72.3,66.2,29.95,WNW,302,0.0,2.0,81,0.00,,,0.00,meteohub,2013-06-18 03:43:00,
2013-06-17 23:48:00,72.3,66.2,29.95,SSE,156,0.0,3.0,81,0.00,,,0.00,meteohub,2013-06-18 03:48:00,
2013-06-17 23:53:00,72.3,66.2,29.94,South,176,0.0,3.0,81,0.00,,,0.00,meteohub,2013-06-18 03:53:00,
2013-06-17 23:58:00,72.1,66.0,29.94,South,176,0.0,3.0,81,0.00,,,0.00,meteohub,2013-06-18 03:58:00,